Time,TemperatureF,DewpointF,PressureIn,WindDirection,WindDirectionDegrees,WindSpeedMPH,WindSpeedGustMPH,Humidity,HourlyPrecipIn,Conditions,Clouds,dailyrainin,SoftwareType,DateUTC
2013-06-21 00:05:00,62.6,58.7,30.23,WNW,291,0.0,0.0,87,0.00,,,0.00,Wunderground v.1.15,2013-06-21 04:05:00,
2013-06-21 00:10:00,62.4,58.5,30.23,WNW,291,0.0,0.0,87,0.00,,,0.00,Wunderground v.1.15,2013-06-21 04:10:00,
2013-06-21 00:15:00,62.2,58.3,30.23,WNW,291,0.0,0.0,87,0.00,,,0.00,Wunderground v.1.15,2013-06-21 04:15:00,
2013-06-21 00:20:00,62.1,58.2,30.23,WNW,291,0.0,0.0,87,0.00,,,0.00,Wunderground v.1.15,2013-06-21 04:20:00,
2013-06-21 00:30:00,61.7,57.8,30.23,WNW,291,0.0,0.0,87,0.00,,,0.00,Wunderground v.1.15,2013-06-21 04:30:00,
2013-06-21 00:35:00,61.6,57.7,30.22,WNW,291,0.0,0.0,87,0.00,,,0.00,Wunderground v.1.15,2013-06-21 04:35:00,
2013-06-21 00:45:00,61.3,57.4,30.22,WNW,291,0.0,0.0,87,0.00,,,0.00,Wunderground v.1.15,2013-06-21 04:45:00,
2013-06-21 00:55:00,61.0,57.1,30.22,WNW,291,0.0,0.0,87,0.00,,,0.00,Wunderground v.1.15,2013-06-21 04:55:00,
2013-06-21 01:00:00,60.9,57.3,30.22,WNW,291,0.0,0.0,88,0.00,,,0.00,Wunderground v.1.15,2013-06-21 05:00:00,
2013-06-21 01:05:00,60.7,57.1,30.22,WNW,291,0.0,0.0,88,0.00,,,0.00,Wunderground v.1.15,2013-06-21 05:05:00,
2013-06-21 01:10:00,60.6,57.0,30.22,WNW,291,0.0,0.0,88,0.00,,,0.00,Wunderground v.1.15,2013-06-21 05:10:00,
2013-06-21 01:20:00,60.3,57.0,30.22,WNW,291,0.0,0.0,89,0.00,,,0.00,Wunderground v.1.15,2013-06-21 05:20:00,
2013-06-21 01:30:00,59.9,56.6,30.22,WNW,291,0.0,0.0,89,0.00,,,0.00,Wunderground v.1.15,2013-06-21 05:30:00,
2013-06-21 01:40:00,59.6,57.0,30.22,WNW,291,0.0,0.0,91,0.00,,,0.00,Wunderground v.1.15,2013-06-21 05:40:00,
2013-06-21 01:45:00,59.5,56.9,30.21,WNW,291,0.0,0.0,91,0.00,,,0.00,Wunderground v.1.15,2013-06-21 05:45:00,
2013-06-21 01:55:00,59.2,56.6,30.21,WNW,291,0.0,0.0,91,0.00,,,0.00,Wunderground v.1.15,2013-06-21 05:55:00,
2013-06-21 02:05:00,58.9,56.3,30.21,WNW,291,0.0,0.0,91,0.00,,,0.00,Wunderground v.1.15,2013-06-21 06:05:00,
2013-06-21 02:10:00,58.8,56.5,30.21,WNW,291,0.0,0.0,92,0.00,,,0.00,Wunderground v.1.15,2013-06-21 06:10:00,
2013-06-21 02:20:00,58.6,56.6,30.21,WNW,291,0.0,0.0,93,0.00,,,0.00,Wunderground v.1.15,2013-06-21 06:20:00,
2013-06-21 02:30:00,58.3,56.0,30.21,WNW,291,0.0,0.0,92,0.00,,,0.00,Wunderground v.1.15,2013-06-21 06:30:00,
2013-06-21 02:35:00,58.1,56.1,30.20,WNW,291,0.0,0.0,93,0.00,,,0.00,Wunderground v.1.15,2013-06-21 06:35:00,
2013-06-21 02:45:00,57.9,56.2,30.21,WNW,291,0.0,0.0,94,0.00,,,0.00,Wunderground v.1.15,2013-06-21 06:45:00,
2013-06-21 02:55:00,57.6,55.6,30.21,WNW,291,0.0,0.0,93,0.00,,,0.00,Wunderground v.1.15,2013-06-21 06:55:00,
2013-06-21 03:05:00,57.5,55.8,30.21,WNW,291,0.0,0.0,94,0.00,,,0.00,Wunderground v.1.15,2013-06-21 07:05:00,
2013-06-21 03:15:00,57.3,55.6,30.21,WNW,291,0.0,0.0,94,0.00,,,0.00,Wunderground v.1.15,2013-06-21 07:15:00,
2013-06-21 03:20:00,57.3,55.6,30.21,WNW,291,0.0,0.0,94,0.00,,,0.00,Wunderground v.1.15,2013-06-21 07:20:00,
2013-06-21 03:30:00,57.1,55.4,30.21,WNW,291,0.0,0.0,94,0.00,,,0.00,Wunderground v.1.15,2013-06-21 07:30:00,
2013-06-21 03:40:00,57.1,55.7,30.20,WNW,291,0.0,0.0,95,0.00,,,0.00,Wunderground v.1.15,2013-06-21 07:40:00,
2013-06-21 03:45:00,57.0,55.6,30.21,WNW,291,0.0,0.0,95,0.00,,,0.00,Wunderground v.1.15,2013-06-21 07:45:00,
2013-06-21 03:55:00,56.7,55.0,30.21,WNW,291,0.0,0.0,94,0.00,,,0.00,Wunderground v.1.15,2013-06-21 07:55:00,
2013-06-21 04:05:00,56.5,55.1,30.21,WNW,291,0.0,0.0,95,0.00,,,0.00,Wunderground v.1.15,2013-06-21 08:05:00,
2013-06-21 04:10:00,56.4,55.0,30.22,WNW,291,0.0,0.0,95,0.00,,,0.00,Wunderground v.1.15,2013-06-21 08:10:00,
2013-06-21 04:20:00,56.1,54.7,30.21,WNW,291,0.0,0.0,95,0.00,,,0.00,Wunderground v.1.15,2013-06-21 08:20:00,
2013-06-21 04:30:00,56.0,54.9,30.21,WNW,291,0.0,0.0,96,0.00,,,0.00,Wunderground v.1.15,2013-06-21 08:30:00,
2013-06-21 04:40:00,55.9,54.8,30.22,WNW,291,0.0,0.0,96,0.00,,,0.00,Wunderground v.1.15,2013-06-21 08:40:00,
2013-06-21 04:45:00,55.8,54.4,30.22,WNW,291,0.0,0.0,95,0.00,,,0.00,Wunderground v.1.15,2013-06-21 08:45:00,
2013-06-21 04:55:00,55.8,54.7,30.22,WNW,291,0.0,0.0,96,0.00,,,0.00,Wunderground v.1.15,2013-06-21 08:55:00,
2013-06-21 05:05:00,55.8,55.0,30.22,WNW,291,0.0,0.0,97,0.00,,,0.00,Wunderground v.1.15,2013-06-21 09:05:00,
2013-06-21 05:15:00,55.8,55.0,30.23,WNW,291,0.0,0.0,97,0.00,,,0.00,Wunderground v.1.15,2013-06-21 09:15:00,
2013-06-21 05:20:00,55.7,54.9,30.23,WNW,291,0.0,0.0,97,0.00,,,0.00,Wunderground v.1.15,2013-06-21 09:20:00,
2013-06-21 05:30:00,55.7,54.9,30.22,WNW,291,0.0,0.0,97,0.00,,,0.00,Wunderground v.1.15,2013-06-21 09:30:00,
2013-06-21 05:40:00,55.4,54.3,30.22,WNW,291,0.0,0.0,96,0.00,,,0.00,Wunderground v.1.15,2013-06-21 09:40:00,
2013-06-21 05:50:00,55.3,54.5,30.23,WNW,291,0.0,0.0,97,0.00,,,0.00,Wunderground v.1.15,2013-06-21 09:50:00,
2013-06-21 05:55:00,55.3,54.5,30.23,WSW,257,0.0,0.0,97,0.00,,,0.00,Wunderground v.1.15,2013-06-21 09:55:00,
2013-06-21 06:05:00,55.1,54.3,30.23,WSW,257,0.0,0.0,97,0.00,,,0.00,Wunderground v.1.15,2013-06-21 10:05:00,
2013-06-21 06:15:00,55.0,54.2,30.23,WSW,257,0.0,0.0,97,0.00,,,0.00,Wunderground v.1.15,2013-06-21 10:15:00,
2013-06-21 06:20:00,55.0,54.2,30.23,WSW,257,0.0,0.0,97,0.00,,,0.00,Wunderground v.1.15,2013-06-21 10:20:00,
2013-06-21 06:30:00,54.9,54.1,30.23,WSW,257,0.0,0.0,97,0.00,,,0.00,Wunderground v.1.15,2013-06-21 10:30:00,
2013-06-21 06:40:00,54.8,54.0,30.23,WSW,257,0.0,0.0,97,0.00,,,0.00,Wunderground v.1.15,2013-06-21 10:40:00,
2013-06-21 06:45:00,54.9,54.3,30.23,WSW,257,0.0,0.0,98,0.00,,,0.00,Wunderground v.1.15,2013-06-21 10:45:00,
2013-06-21 06:55:00,55.1,54.5,30.24,WSW,257,0.0,0.0,98,0.00,,,0.00,Wunderground v.1.15,2013-06-21 10:55:00,
2013-06-21 07:05:00,55.3,54.7,30.24,WSW,257,0.0,0.0,98,0.00,,,0.00,Wunderground v.1.15,2013-06-21 11:05:00,
2013-06-21 07:15:00,55.8,55.5,30.24,West,273,0.0,0.0,99,0.00,,,0.00,Wunderground v.1.15,2013-06-21 11:15:00,
2013-06-21 07:20:00,56.4,56.1,30.24,NW,310,0.0,0.0,99,0.00,,,0.00,Wunderground v.1.15,2013-06-21 11:20:00,
2013-06-21 07:30:00,57.5,57.2,30.24,NNW,331,0.0,0.0,99,0.00,,,0.00,Wunderground v.1.15,2013-06-21 11:30:00,
2013-06-21 07:40:00,58.3,58.0,30.24,NNW,331,0.0,0.0,99,0.00,,,0.00,Wunderground v.1.15,2013-06-21 11:40:00,
2013-06-21 07:50:00,59.3,59.0,30.24,North,351,0.0,0.0,99,0.00,,,0.00,Wunderground v.1.15,2013-06-21 11:50:00,
2013-06-21 07:55:00,59.8,59.5,30.24,North,351,0.0,0.0,99,0.00,,,0.00,Wunderground v.1.15,2013-06-21 11:55:00,
2013-06-21 08:05:00,60.7,60.1,30.24,NE,41,0.0,1.0,98,0.00,,,0.00,Wunderground v.1.15,2013-06-21 12:05:00,
2013-06-21 08:15:00,61.6,60.7,30.24,North,9,1.0,1.0,97,0.00,,,0.00,Wunderground v.1.15,2013-06-21 12:15:00,
2013-06-21 08:20:00,62.1,60.9,30.24,North,10,1.0,1.0,96,0.00,,,0.00,Wunderground v.1.15,2013-06-21 12:20:00,
2013-06-21 08:30:00,63.0,61.2,30.24,North,5,1.0,1.0,94,0.00,,,0.00,Wunderground v.1.15,2013-06-21 12:30:00,
2013-06-21 08:40:00,63.9,60.9,30.24,North,360,1.0,1.0,90,0.00,,,0.00,Wunderground v.1.15,2013-06-21 12:40:00,
2013-06-21 08:50:00,64.9,60.9,30.24,North,5,1.0,1.0,87,0.00,,,0.00,Wunderground v.1.15,2013-06-21 12:50:00,
2013-06-21 09:00:00,66.0,61.0,30.24,NNE,19,1.0,2.0,84,0.00,,,0.00,Wunderground v.1.15,2013-06-21 13:00:00,
2013-06-21 09:05:00,66.6,60.6,30.24,WNW,290,1.0,2.0,81,0.00,,,0.00,Wunderground v.1.15,2013-06-21 13:05:00,
2013-06-21 09:15:00,67.5,60.4,30.24,North,5,1.0,2.0,78,0.00,,,0.00,Wunderground v.1.15,2013-06-21 13:15:00,
2013-06-21 09:25:00,67.9,59.3,30.24,NNW,343,1.0,1.0,74,0.00,,,0.00,Wunderground v.1.15,2013-06-21 13:25:00,
2013-06-21 09:35:00,68.4,58.6,30.24,NW,323,1.0,1.0,71,0.00,,,0.00,Wunderground v.1.15,2013-06-21 13:35:00,
2013-06-21 09:45:00,68.8,58.6,30.25,NW,321,2.0,2.0,70,0.00,,,0.00,Wunderground v.1.15,2013-06-21 13:45:00,
2013-06-21 09:50:00,69.2,59.4,30.24,NW,321,1.0,1.0,71,0.00,,,0.00,Wunderground v.1.15,2013-06-21 13:50:00,
2013-06-21 10:00:00,69.7,60.3,30.24,WNW,302,0.0,0.0,72,0.00,,,0.00,Wunderground v.1.15,2013-06-21 14:00:00,
2013-06-21 10:05:00,70.1,59.5,30.24,North,11,0.0,2.0,69,0.00,,,0.00,Wunderground v.1.15,2013-06-21 14:05:00,
2013-06-21 10:15:00,71.0,60.3,30.24,NW,323,1.0,2.0,69,0.00,,,0.00,Wunderground v.1.15,2013-06-21 14:15:00,
2013-06-21 10:25:00,72.0,59.2,30.24,North,355,1.0,2.0,64,0.00,,,0.00,Wunderground v.1.15,2013-06-21 14:25:00,
2013-06-21 10:35:00,72.8,60.3,30.24,North,5,1.0,1.0,65,0.00,,,0.00,Wunderground v.1.15,2013-06-21 14:35:00,
2013-06-21 10:45:00,73.7,59.9,30.24,NNE,17,1.0,1.0,62,0.00,,,0.00,Wunderground v.1.15,2013-06-21 14:45:00,
2013-06-21 10:50:00,73.9,59.6,30.24,NNE,31,1.0,1.0,61,0.00,,,0.00,Wunderground v.1.15,2013-06-21 14:50:00,
2013-06-21 11:00:00,74.4,58.2,30.24,NE,49,2.0,2.0,57,0.00,,,0.00,Wunderground v.1.15,2013-06-21 15:00:00,
2013-06-21 11:10:00,75.1,56.8,30.24,North,5,1.0,1.0,53,0.00,,,0.00,Wunderground v.1.15,2013-06-21 15:10:00,
2013-06-21 11:20:00,75.5,57.7,30.24,NNW,345,1.0,1.0,54,0.00,,,0.00,Wunderground v.1.15,2013-06-21 15:20:00,
2013-06-21 11:25:00,75.7,56.8,30.24,North,360,2.0,2.0,52,0.00,,,0.00,Wunderground v.1.15,2013-06-21 15:25:00,
2013-06-21 11:35:00,76.0,58.7,30.24,NNW,330,1.0,2.0,55,0.00,,,0.00,Wunderground v.1.15,2013-06-21 15:35:00,
2013-06-21 11:45:00,76.5,56.5,30.24,NNW,333,1.0,2.0,50,0.00,,,0.00,Wunderground v.1.15,2013-06-21 15:45:00,
2013-06-21 11:55:00,76.9,57.9,30.24,North,355,1.0,1.0,52,0.00,,,0.00,Wunderground v.1.15,2013-06-21 15:55:00,
2013-06-21 12:00:00,77.1,58.1,30.24,NE,49,1.0,1.0,52,0.00,,,0.00,Wunderground v.1.15,2013-06-21 16:00:00,
2013-06-21 12:10:00,77.8,58.2,30.23,NNE,14,1.0,1.0,51,0.00,,,0.00,Wunderground v.1.15,2013-06-21 16:10:00,
2013-06-21 12:20:00,77.8,56.0,30.23,NW,307,1.0,2.0,47,0.00,,,0.00,Wunderground v.1.15,2013-06-21 16:20:00,
2013-06-21 12:25:00,77.8,55.4,30.24,NNW,336,1.0,2.0,46,0.00,,,0.00,Wunderground v.1.15,2013-06-21 16:25:00,
2013-06-21 12:35:00,78.7,57.9,30.24,North,360,1.0,1.0,49,0.00,,,0.00,Wunderground v.1.15,2013-06-21 16:35:00,
2013-06-21 12:45:00,78.9,58.7,30.24,NW,311,1.0,1.0,50,0.00,,,0.00,Wunderground v.1.15,2013-06-21 16:45:00,
2013-06-21 12:55:00,79.4,59.1,30.24,West,268,0.0,1.0,50,0.00,,,0.00,Wunderground v.1.15,2013-06-21 16:55:00,
2013-06-21 13:10:00,78.7,58.5,30.24,NW,321,1.0,1.0,50,0.00,,,0.00,Wunderground v.1.15,2013-06-21 17:10:00,
2013-06-21 13:20:00,78.7,58.5,30.23,WNW,296,1.0,1.0,50,0.00,,,0.00,Wunderground v.1.15,2013-06-21 17:20:00,
2013-06-21 13:25:00,79.2,61.1,30.23,WNW,296,0.0,1.0,54,0.00,,,0.00,Wunderground v.1.15,2013-06-21 17:25:00,
2013-06-21 13:35:00,79.9,63.8,30.23,NE,51,1.0,1.0,58,0.00,,,0.00,Wunderground v.1.15,2013-06-21 17:35:00,
2013-06-21 13:45:00,79.9,58.5,30.23,West,281,1.0,1.0,48,0.00,,,0.00,Wunderground v.1.15,2013-06-21 17:45:00,
2013-06-21 13:50:00,79.8,59.5,30.23,West,261,1.0,2.0,50,0.00,,,0.00,Wunderground v.1.15,2013-06-21 17:50:00,
2013-06-21 13:55:00,79.5,61.4,30.23,West,261,1.0,2.0,54,0.00,,,0.00,Wunderground v.1.15,2013-06-21 17:55:00,
2013-06-21 14:00:00,79.9,62.3,30.22,NW,325,1.0,2.0,55,0.00,,,0.00,Wunderground v.1.15,2013-06-21 18:00:00,
2013-06-21 14:05:00,80.4,62.2,30.22,NW,325,1.0,2.0,54,0.00,,,0.00,Wunderground v.1.15,2013-06-21 18:05:00,
2013-06-21 14:10:00,80.5,60.1,30.23,NNW,333,0.0,0.0,50,0.00,,,0.00,Wunderground v.1.15,2013-06-21 18:10:00,
2013-06-21 14:20:00,80.9,59.4,30.22,NW,315,1.0,1.0,48,0.00,,,0.00,Wunderground v.1.15,2013-06-21 18:20:00,
2013-06-21 14:25:00,81.1,61.8,30.22,NNE,27,1.0,1.0,52,0.00,,,0.00,Wunderground v.1.15,2013-06-21 18:25:00,
2013-06-21 14:35:00,81.8,63.0,30.22,North,5,1.0,1.0,53,0.00,,,0.00,Wunderground v.1.15,2013-06-21 18:35:00,
2013-06-21 14:45:00,81.5,62.2,30.22,NNE,17,1.0,1.0,52,0.00,,,0.00,Wunderground v.1.15,2013-06-21 18:45:00,
2013-06-21 14:50:00,81.7,63.4,30.22,North,9,1.0,1.0,54,0.00,,,0.00,Wunderground v.1.15,2013-06-21 18:50:00,
2013-06-21 14:55:00,81.9,64.7,30.22,NNE,30,1.0,3.0,56,0.00,,,0.00,Wunderground v.1.15,2013-06-21 18:55:00,
2013-06-21 15:00:00,81.8,61.3,30.22,NNE,18,1.0,1.0,50,0.00,,,0.00,Wunderground v.1.15,2013-06-21 19:00:00,
2013-06-21 15:05:00,81.9,63.6,30.22,NNE,18,1.0,1.0,54,0.00,,,0.00,Wunderground v.1.15,2013-06-21 19:05:00,
2013-06-21 15:10:00,81.9,63.6,30.21,SW,232,1.0,3.0,54,0.00,,,0.00,Wunderground v.1.15,2013-06-21 19:10:00,
2013-06-21 15:15:00,81.6,64.9,30.21,North,5,1.0,3.0,57,0.00,,,0.00,Wunderground v.1.15,2013-06-21 19:15:00,
2013-06-21 15:20:00,81.8,64.6,30.21,North,355,1.0,1.0,56,0.00,,,0.00,Wunderground v.1.15,2013-06-21 19:20:00,
2013-06-21 15:25:00,82.1,65.4,30.20,North,355,1.0,1.0,57,0.00,,,0.00,Wunderground v.1.15,2013-06-21 19:25:00,
2013-06-21 15:35:00,82.4,65.6,30.20,NNW,328,1.0,2.0,57,0.00,,,0.00,Wunderground v.1.15,2013-06-21 19:35:00,
2013-06-21 15:40:00,82.0,63.7,30.20,West,259,1.0,1.0,54,0.00,,,0.00,Wunderground v.1.15,2013-06-21 19:40:00,
2013-06-21 15:50:00,82.0,65.8,30.20,WSW,252,1.0,1.0,58,0.00,,,0.00,Wunderground v.1.15,2013-06-21 19:50:00,
2013-06-21 16:00:00,82.7,64.4,30.20,North,349,1.0,2.0,54,0.00,,,0.00,Wunderground v.1.15,2013-06-21 20:00:00,
2013-06-21 16:10:00,83.0,67.2,30.20,North,360,1.0,1.0,59,0.00,,,0.00,Wunderground v.1.15,2013-06-21 20:10:00,
2013-06-21 16:15:00,82.6,68.7,30.20,North,360,0.0,1.0,63,0.00,,,0.00,Wunderground v.1.15,2013-06-21 20:15:00,
2013-06-21 16:25:00,82.2,66.9,30.20,North,360,0.0,2.0,60,0.00,,,0.00,Wunderground v.1.15,2013-06-21 20:25:00,
2013-06-21 16:30:00,82.0,67.7,30.19,NW,326,0.0,0.0,62,0.00,,,0.00,Wunderground v.1.15,2013-06-21 20:30:00,
2013-06-21 16:35:00,81.5,67.2,30.19,WNW,294,1.0,1.0,62,0.00,,,0.00,Wunderground v.1.15,2013-06-21 20:35:00,
2013-06-21 16:40:00,81.5,67.7,30.19,WNW,294,1.0,1.0,63,0.00,,,0.00,Wunderground v.1.15,2013-06-21 20:40:00,
2013-06-21 16:45:00,82.0,65.8,30.18,WNW,294,0.0,1.0,58,0.00,,,0.00,Wunderground v.1.15,2013-06-21 20:45:00,
2013-06-21 16:55:00,82.2,68.8,30.18,North,349,0.0,1.0,64,0.00,,,0.00,Wunderground v.1.15,2013-06-21 20:55:00,
2013-06-21 17:05:00,82.5,65.7,30.18,WNW,293,1.0,3.0,57,0.00,,,0.00,Wunderground v.1.15,2013-06-21 21:05:00,
2013-06-21 17:10:00,82.3,65.0,30.18,North,350,1.0,3.0,56,0.00,,,0.00,Wunderground v.1.15,2013-06-21 21:10:00,
2013-06-21 17:20:00,82.8,67.5,30.18,East,86,1.0,1.0,60,0.00,,,0.00,Wunderground v.1.15,2013-06-21 21:20:00,
2013-06-21 17:30:00,82.7,65.9,30.18,North,9,1.0,1.0,57,0.00,,,0.00,Wunderground v.1.15,2013-06-21 21:30:00,
2013-06-21 17:40:00,82.7,66.4,30.18,North,10,1.0,1.0,58,0.00,,,0.00,Wunderground v.1.15,2013-06-21 21:40:00,
2013-06-21 17:45:00,82.1,66.8,30.18,NW,310,0.0,1.0,60,0.00,,,0.00,Wunderground v.1.15,2013-06-21 21:45:00,
2013-06-21 17:55:00,81.5,65.8,30.17,NW,310,0.0,0.0,59,0.00,,,0.00,Wunderground v.1.15,2013-06-21 21:55:00,
2013-06-21 18:05:00,80.7,66.5,30.17,NNW,340,1.0,1.0,62,0.00,,,0.00,Wunderground v.1.15,2013-06-21 22:05:00,
2013-06-21 18:15:00,80.3,67.9,30.17,NNW,346,0.0,1.0,66,0.00,,,0.00,Wunderground v.1.15,2013-06-21 22:15:00,
2013-06-21 18:25:00,80.0,67.2,30.18,NNW,340,0.0,1.0,65,0.00,,,0.00,Wunderground v.1.15,2013-06-21 22:25:00,
2013-06-21 18:30:00,79.8,66.5,30.18,NNW,340,0.0,0.0,64,0.00,,,0.00,Wunderground v.1.15,2013-06-21 22:30:00,
2013-06-21 18:35:00,80.0,67.2,30.18,NNW,340,0.0,0.0,65,0.00,,,0.00,Wunderground v.1.15,2013-06-21 22:35:00,
2013-06-21 18:45:00,80.0,67.6,30.18,NNW,328,0.0,1.0,66,0.00,,,0.00,Wunderground v.1.15,2013-06-21 22:45:00,
2013-06-21 18:55:00,80.2,67.4,30.18,North,351,0.0,0.0,65,0.00,,,0.00,Wunderground v.1.15,2013-06-21 22:55:00,
2013-06-21 19:05:00,80.2,67.8,30.18,North,351,0.0,0.0,66,0.00,,,0.00,Wunderground v.1.15,2013-06-21 23:05:00,
2013-06-21 19:10:00,80.0,66.3,30.18,West,261,0.0,0.0,63,0.00,,,0.00,Wunderground v.1.15,2013-06-21 23:10:00,
2013-06-21 19:20:00,79.4,67.5,30.17,West,261,0.0,0.0,67,0.00,,,0.00,Wunderground v.1.15,2013-06-21 23:20:00,
2013-06-21 19:30:00,79.0,68.8,30.17,West,261,0.0,0.0,71,0.00,,,0.00,Wunderground v.1.15,2013-06-21 23:30:00,
2013-06-21 19:35:00,78.7,68.1,30.17,West,261,0.0,0.0,70,0.00,,,0.00,Wunderground v.1.15,2013-06-21 23:35:00,
2013-06-21 19:45:00,78.0,68.2,30.17,West,261,0.0,0.0,72,0.00,,,0.00,Wunderground v.1.15,2013-06-21 23:45:00,
2013-06-21 19:55:00,77.1,68.2,30.17,West,261,0.0,0.0,74,0.00,,,0.00,Wunderground v.1.15,2013-06-21 23:55:00,
2013-06-21 20:05:00,76.1,68.7,30.17,West,261,0.0,0.0,78,0.00,,,0.00,Wunderground v.1.15,2013-06-22 00:05:00,
2013-06-21 20:15:00,75.3,68.0,30.17,NW,306,0.0,0.0,78,0.00,,,0.00,Wunderground v.1.15,2013-06-22 00:15:00,
2013-06-21 20:25:00,74.5,67.9,30.17,NW,306,0.0,0.0,80,0.00,,,0.00,Wunderground v.1.15,2013-06-22 00:25:00,
2013-06-21 20:35:00,73.9,67.7,30.17,NW,306,0.0,0.0,81,0.00,,,0.00,Wunderground v.1.15,2013-06-22 00:35:00,
2013-06-21 20:40:00,73.5,67.7,30.17,NW,306,0.0,0.0,82,0.00,,,0.00,Wunderground v.1.15,2013-06-22 00:40:00,
2013-06-21 20:50:00,72.8,67.7,30.17,NW,306,0.0,0.0,84,0.00,,,0.00,Wunderground v.1.15,2013-06-22 00:50:00,
2013-06-21 21:00:00,72.3,67.5,30.18,NW,306,0.0,0.0,85,0.00,,,0.00,Wunderground v.1.15,2013-06-22 01:00:00,
2013-06-21 21:05:00,71.9,67.5,30.18,NW,306,0.0,0.0,86,0.00,,,0.00,Wunderground v.1.15,2013-06-22 01:05:00,
2013-06-21 21:10:00,71.7,67.6,30.18,NW,306,0.0,0.0,87,0.00,,,0.00,Wunderground v.1.15,2013-06-22 01:10:00,
2013-06-21 21:20:00,71.1,67.4,30.18,NW,306,0.0,0.0,88,0.00,,,0.00,Wunderground v.1.15,2013-06-22 01:20:00,
2013-06-21 21:30:00,70.4,67.0,30.18,NW,306,0.0,0.0,89,0.00,,,0.00,Wunderground v.1.15,2013-06-22 01:30:00,
2013-06-21 21:40:00,70.0,66.9,30.18,NW,306,0.0,0.0,90,0.00,,,0.00,Wunderground v.1.15,2013-06-22 01:40:00,
2013-06-21 21:50:00,69.7,66.6,30.18,NW,306,0.0,0.0,90,0.00,,,0.00,Wunderground v.1.15,2013-06-22 01:50:00,
2013-06-21 22:00:00,69.2,66.5,30.18,NW,306,0.0,0.0,91,0.00,,,0.00,Wunderground v.1.15,2013-06-22 02:00:00,
2013-06-21 22:05:00,69.1,66.4,30.19,NW,306,0.0,0.0,91,0.00,,,0.00,Wunderground v.1.15,2013-06-22 02:05:00,
2013-06-21 22:15:00,68.8,66.4,30.19,NW,306,0.0,0.0,92,0.00,,,0.00,Wunderground v.1.15,2013-06-22 02:15:00,
2013-06-21 22:25:00,68.4,66.0,30.19,NW,306,0.0,0.0,92,0.00,,,0.00,Wunderground v.1.15,2013-06-22 02:25:00,
2013-06-21 22:35:00,68.1,66.0,30.20,NW,306,0.0,0.0,93,0.00,,,0.00,Wunderground v.1.15,2013-06-22 02:35:00,
2013-06-21 22:45:00,68.0,66.2,30.20,NW,306,0.0,0.0,94,0.00,,,0.00,Wunderground v.1.15,2013-06-22 02:45:00,
2013-06-21 22:55:00,68.0,66.2,30.20,NW,306,0.0,0.0,94,0.00,,,0.00,Wunderground v.1.15,2013-06-22 02:55:00,
2013-06-21 23:05:00,67.9,66.1,30.19,NW,306,0.0,0.0,94,0.00,,,0.00,Wunderground v.1.15,2013-06-22 03:05:00,
2013-06-21 23:10:00,68.0,66.5,30.19,NW,306,0.0,0.0,95,0.00,,,0.00,Wunderground v.1.15,2013-06-22 03:10:00,
2013-06-21 23:20:00,68.0,66.5,30.19,NW,306,0.0,0.0,95,0.00,,,0.00,Wunderground v.1.15,2013-06-22 03:20:00,
2013-06-21 23:30:00,68.1,66.6,30.19,NW,306,0.0,0.0,95,0.00,,,0.00,Wunderground v.1.15,2013-06-22 03:30:00,
2013-06-21 23:40:00,68.0,66.5,30.19,NW,306,0.0,0.0,95,0.00,,,0.00,Wunderground v.1.15,2013-06-22 03:40:00,
2013-06-21 23:50:00,67.9,66.4,30.19,NW,306,0.0,0.0,95,0.00,,,0.00,Wunderground v.1.15,2013-06-22 03:50:00,